TimeEDT,TemperatureF,Dew PointF,Humidity,Sea Level PressureIn,VisibilityMPH,Wind Direction,Wind SpeedMPH,Gust SpeedMPH,PrecipitationIn,Events,Conditions,WindDirDegrees,DateUTC
12:53 AM,39.0,37.9,96,30.08,10.0,Calm,Calm,-,N/A,,Clear,0,2013-09-06 04:53:00
1:53 AM,37.0,36.0,96,30.08,10.0,Calm,Calm,-,N/A,,Clear,0,2013-09-06 05:53:00
2:53 AM,37.0,36.0,96,30.08,10.0,Calm,Calm,-,N/A,,Clear,0,2013-09-06 06:53:00
3:53 AM,39.0,37.0,93,30.09,10.0,South,3.5,-,N/A,,Clear,190,2013-09-06 07:53:00
4:53 AM,37.0,36.0,96,30.09,10.0,Calm,Calm,-,N/A,,Clear,0,2013-09-06 08:53:00
5:53 AM,36.0,34.0,93,30.09,10.0,SW,3.5,-,N/A,,Clear,220,2013-09-06 09:53:00
6:53 AM,36.0,35.1,97,30.12,10.0,Calm,Calm,-,N/A,,Clear,0,2013-09-06 10:53:00
7:53 AM,46.0,39.9,79,30.12,10.0,Variable,4.6,-,N/A,,Clear,0,2013-09-06 11:53:00
8:53 AM,50.0,39.9,68,30.12,10.0,WSW,5.8,-,N/A,,Clear,250,2013-09-06 12:53:00
9:53 AM,53.1,39.0,59,30.11,10.0,WSW,6.9,-,N/A,,Clear,250,2013-09-06 13:53:00
10:53 AM,57.9,39.9,51,30.09,10.0,WSW,5.8,-,N/A,,Clear,250,2013-09-06 14:53:00
11:53 AM,61.0,34.0,36,30.07,10.0,West,10.4,18.4,N/A,,Clear,260,2013-09-06 15:53:00
12:53 PM,63.0,33.1,33,30.06,10.0,WSW,15.0,20.7,N/A,,Clear,250,2013-09-06 16:53:00
1:53 PM,64.9,34.0,32,30.04,10.0,West,9.2,18.4,N/A,,Clear,270,2013-09-06 17:53:00
2:53 PM,64.9,34.0,32,30.02,10.0,West,10.4,-,N/A,,Clear,270,2013-09-06 18:53:00
3:53 PM,66.0,37.0,34,30.00,10.0,SW,9.2,17.3,N/A,,Clear,230,2013-09-06 19:53:00
4:53 PM,64.9,37.9,37,29.99,10.0,SW,11.5,-,N/A,,Clear,230,2013-09-06 20:53:00
5:53 PM,63.0,41.0,45,29.98,10.0,SW,8.1,-,N/A,,Clear,220,2013-09-06 21:53:00
6:53 PM,59.0,41.0,51,29.98,10.0,SSW,6.9,-,N/A,,Clear,200,2013-09-06 22:53:00
7:53 PM,57.9,41.0,53,29.97,10.0,SSW,4.6,-,N/A,,Clear,200,2013-09-06 23:53:00
8:53 PM,55.9,43.0,62,29.97,10.0,SSW,8.1,-,N/A,,Clear,210,2013-09-07 00:53:00
9:53 PM,51.1,44.1,77,29.98,10.0,South,4.6,-,N/A,,Clear,190,2013-09-07 01:53:00
10:53 PM,53.1,44.1,71,29.97,10.0,South,6.9,-,N/A,,Clear,190,2013-09-07 02:53:00
11:53 PM,53.1,44.1,71,29.96,10.0,SSW,6.9,-,N/A,,Clear,210,2013-09-07 03:53:00